COSMOS 1275 DEB, 39946

Orbit data source: Space-Track

COSMOS 1275 DEB, 39946 is space debris in LEO originally from a launch on Thu, 04 Jun 1981 UTC launched from the Plesetsk Missile And Space Complex (PKMTR). Debris objects in space refer to the collection of defunct objects orbiting the Earth. Examples of debris include non-operational satellites, rocket bodies, and fragments generated from explosions, collisions, or faulty payload assembly.

Loading next visibility...
Identifier
39946, 1981-053NG
Orbit
LEO
Country
Flag of CISCIS
Related business
Manufacturer
Unknown
Mission
Spacecraft
Bus & Motor
Unknown
Mass
Unknown
Launch date (UTC)
1981-06-04 (45 years ago)
Launch vehicle
Unknown
Launch site
Plesetsk Missile And Space Complex (PKMTR)
Object type
Payload
Rocket body
Debris
Shape & HBR
Unknown shape, 0.1 m
Radar Cross Section
Small (<0.1 m²)

Expand to show TLE details & history
Last TLE update: 1 week ago

TLE from 1 week ago
0 COSMOS 1275 DEB
1 39946U 81053NG  26165.75612252  .00000195  00000-0  16867-3 0  9994
2 39946  82.9535 177.6175 0032738 255.0118 104.7417 13.81283633925642
Epoch: 2026-06-14T18:08Z
TLE epoch observation values (Epoch: 2026-06-14T18:08:48.985Z)
Latitude
-0.00004°
Longitude
2.36109°
Altitude
968.433 km
Speed
7.364 km/s
True Right ascension
11h 50m 28s
True Declination
0° 00' 00"
Sunlit
Object was in daylight at epoch
Visualization orbit readout
Latitude
Unknown
Longitude
Unknown
Altitude
Unknown
Speed
Unknown
Apparent Right ascension
Unknown
Apparent Declination
Unknown
Sunlit
N/A
Visualization observer readout
Local Sidereal Time
00:08:59
Azimuth
Unknown
Elevation
Unknown
Doppler factor
Unknown
Orbital elements
Apogee altitude
980.489 km
Perigee altitude
932.465 km
Semi-major axis
7,334.614 km
Eccentricity
0.00327
Inclination
82.9535°
RAAN
177.6175°
Arg. of periapsis
255.0118°
True anomaly
105.10412°
Mean anomaly
104.7417°
Eccentric anomaly
104.92295°
Mean motion
3.45523 °/min
Orbital period
104.19 mins
BSTAR
0.00016867
Loading maneuver chart data...
Computing Atmospheric mass density...

Documentation

Showing up to 5 results
|